Regional Weather Roundup
Issued by NWS

Home | Current Version | Previous Version | Text Only | Print | Product List | Glossary On
Versions: 1 2 3 4 5 6 7 8 9 10 11 12 13 14 15 16 17 18 19 20 21 22 23 24 25 26 27 28 29 30 31 32 33 34 35 36 37 38 39 40 41 42 43 44 45 46 47 48 49 50
337
ASUS44 KMEG 171610
RWRTN
TENNESSEE HOURLY STATE WEATHER ROUNDUP
NATIONAL WEATHER SERVICE MEMPHIS TN
1100 AM CDT TUE SEP 17 2019

TNZ002-004-019-021-049-052-054-088>092-171700-
WEST TENNESSEE

CITY           SKY/WX    TMP DP  RH WIND       PRES   REMARKS
MEMPHIS INTL   FAIR      93  66  40 NE5       30.07S HX  96
NWS MEMPHIS      N/A     91 N/A N/A MISG        N/A
JACKSON        FAIR      92  71  50 VRB6      30.07F HX  98
DYERSBURG      FAIR      89  71  55 CALM      30.08R HX  95
SOMERVILLE     SUNNY     91  66  43 CALM      30.06S HX  94
UNION CITY     SUNNY     91  73  55 VRB3      30.05S HX 100
BOLIVAR        SUNNY     90  68  48 NE6       30.07S HX  93
PARIS          PTSUNNY   90  72  55 NE8       30.07S HX  96
HUNTINGDON     SUNNY     90  73  58 VRB3      30.06F HX  98
LEXINGTON      SUNNY     90  72  55 VRB5      30.06S HX  96
SELMER         SUNNY     90  72  55 N6        30.07R HX  96
SAVANNAH       SUNNY     88  73  62 NE3       30.06S HX  96
$$

TNZ008-025-027-028-033-062-065-066-171700-
NORTH MIDDLE TENNESSEE

CITY           SKY/WX    TMP DP  RH WIND       PRES   REMARKS
NASHVILLE      FAIR      92  67  43 NW6       30.07S HX  95
DICKSON        MOSUNNY   88  68  51 E9G16     30.08R HX  91
PORTLAND       SUNNY     88  68  51 N8        30.07S HX  91
CLARKSVILLE    FAIR      89  69  51 N9        30.07S HX  93
LEBANON        SUNNY     88  68  51 N5        30.05S HX  91
SMYRNA         FAIR      90  70  51 VRB5      30.07S HX  95
MURFREESBORO   SUNNY     88  68  51 VRB5      30.04S HX  91
COOKEVILLE     SUNNY     86  68  54 CALM      30.08S
LIVINGSTON     SUNNY     86  66  51 NE8       30.09S
CROSSVILLE     FAIR      85  63  47 VRB5      30.12F
ROCKWOOD       MOSUNNY   86  64  48 VRB3G13   30.09S
$$

TNZ061-075-076-078-094-096-097-171700-
SOUTH MIDDLE TENNESSEE

CITY           SKY/WX    TMP DP  RH WIND       PRES   REMARKS
LAWRENCEBURG   SUNNY     90  68  48 N9        30.07S HX  93
LEWISBURG      SUNNY     90  68  48 VRB6G14   30.06S HX  93
FAYETTEVILLE   SUNNY     88  68  51 N6        30.07S HX  91
TULLAHOMA      SUNNY     88  68  51 VRB6G13   30.07S HX  91
WINCHESTER     SUNNY     88  66  48 VRB3G12   30.07S HX  90
MCMINNVILLE    SUNNY     86  68  54 NE8       30.07F
COLUMBIA       SUNNY     88  68  51 VRB5      30.05S HX  91
SHELBYVILLE    SUNNY     90  70  51 NW9       30.07S HX  95
$$

TNZ017-018-042-046-047-171700-
NORTHEAST TENNESSEE

CITY           SKY/WX    TMP DP  RH WIND       PRES   REMARKS
TRI CITIES     FAIR      82  64  54 CALM      30.09F
ELIZABETHTON   FAIR      82  63  51 VRB3      30.08S
GREENEVILLE    PTSUNNY   82  64  54 VRB3      30.08F
$$

TNZ012-013-036-069-073-074-171700-
CENTRAL EAST TENNESSEE

CITY           SKY/WX    TMP DP  RH WIND       PRES   REMARKS
KNOXVILLE      FAIR      87  65  47 CALM      30.05F
OAK RIDGE      FAIR      89  67  47 CALM      30.06F HX  92
DOWNTOWN KNOXV MOSUNNY   88  70  55 CALM      30.05F HX  92
GATLINBURG     MOSUNNY   86  66  51 VRB3      30.05S
MORRISTOWN     MOSUNNY   84  66  54 S5        30.07S
JACKSBORO      SUNNY     86  64  48 NE8       30.10S
$$

TNZ083-085-099-171700-
SOUTHEAST TENNESSEE

CITY           SKY/WX    TMP DP  RH WIND       PRES   REMARKS
CHATTANOOGA    FAIR      90  66  45 CALM      30.05S HX  92
DAYTON         SUNNY     91  68  46 VRB6      30.03F HX  95
$$

SKY/WX REPORTED AS FAIR MEANS FEW OR NO CLOUDS BELOW
12 THOUSAND FEET.





USA.gov is the U.S. government's official web portal to all federal, state and local government web resources and services.